Regional Weather Roundup
Issued by NWS

Home | Current Version | Previous Version | Text Only | Print | Product List | Glossary On
Versions: 1 2 3 4 5 6 7 8 9 10 11 12 13 14 15 16 17 18 19 20 21 22 23 24 25 26 27 28 29 30 31 32 33 34 35 36 37 38 39 40 41 42 43 44 45 46 47 48 49 50
000
ASUS45 KREV 301710
RWRNV
NEVADA REGIONAL WEATHER ROUNDUP
NATIONAL WEATHER SERVICE RENO NV
1000 AM PDT WED JUL 30 2014

NOTE: "FAIR" INDICATES FEW OR NO CLOUDS BELOW 12,000 FEET WITH NO
SIGNIFICANT WEATHER AND/OR OBSTRUCTIONS TO VISIBILITY.

NVZ001-003-004-301800-
WESTERN NEVADA

CITY           SKY/WX    TMP DP  RH WIND       PRES   REMARKS
RENO           FAIR      80  46  30 CALM      30.22F
CARSON CITY    FAIR      75  48  38 SW5       30.25F
SLIDE MTN        N/A     61  41  48 E7          N/A
PYRAMID LAKE     N/A     79 N/A N/A N2          N/A
FALLON         FAIR      82  46  28 CALM      30.19S
LOVELOCK       FAIR      82  47  29 CALM      30.18F
HAWTHORNE      SUNNY     81  46  30 CALM      30.22S
$$

NVZ002-CAZ072-073-301800-
NORTHERN AND CENTRAL SIERRA

CITY           SKY/WX    TMP DP  RH WIND       PRES   REMARKS
S. LAKE TAHOE  FAIR      74  47  38 E5        30.35S
TRUCKEE        MOSUNNY   70  46  43 CALM      30.35R
SQUAW VLY 8000 NOT AVBL
BLUE CANYON    FAIR      76  41  28 SE5       30.29R
MAMMOTH LAKES  LGT RAIN  63  46  55 SW10      30.46R
BRIDGEPORT     FAIR      62  45  53 CALM      30.38S
$$

NVZ030-031-036-301800-
NORTHERN NEVADA

CITY           SKY/WX    TMP DP  RH WIND       PRES   REMARKS
ELKO           FAIR      74  46  36 CALM      30.28S
WINNEMUCCA     FAIR      80  47  31 CALM      30.22F
WENDOVER       FAIR      75  54  46 E6        30.22S
$$

NVZ035-037-301800-
CENTRAL NEVADA

CITY           SKY/WX    TMP DP  RH WIND       PRES   REMARKS
ELY            FAIR      68  53  58 CALM      30.33F
EUREKA           N/A     73  47  39 VRB3      30.32S
$$

NVZ013-014-301800-
SOUTH CENTRAL NEVADA

CITY           SKY/WX    TMP DP  RH WIND       PRES   REMARKS
TONOPAH        FAIR      81  44  27 NE6       30.27F
$$

NVZ017-020-022-301800-
SOUTHERN NEVADA

CITY           SKY/WX    TMP DP  RH WIND       PRES   REMARKS
LAS VEGAS      FAIR      94  54  25 VRB6      29.96S
N. LAS VEGAS   FAIR      94  53  25 NE7       29.99R
NELLIS AFB     FAIR      95  54  24 NE10G17   29.97S
HENDERSON      FAIR      94  54  25 VRB6      30.03S
MERCURY        FAIR      91  49  23 NE13      30.08S
$$


USA.gov is the U.S. government's official web portal to all federal, state and local government web resources and services.